星链-4205 (STARLINK-4205 )

导读

STARLINK-4205是美国SpaceX公司星链(Starlink)星座的成员卫星,于2022年7月17日发射。作为低轨互联网星座的组网卫星,它依托星链技术改造,支持高速低延迟互联,配备星链迷你激光链路,可实现最远4000公里25Gbps传输速率,为全球偏远地区提供宽带互联网服务,目前运行在约548公里高度的近地轨道,总质量约297千克。

Basic Information
目录编号:
53174
目录名称:
STARLINK-4205
国际标识:
2022-083AU
轨道中心:
EARTH
卫星名称:
星链-4205
卫星全名:
星链-4205 (STARLINK-4205 )
卫星状态:
在轨 (已飞行1431 天)
发射日期:
2022-07-17 UTC
国别 :
美国 (US)
星等 :
--
Orbit Information
数据来源 国际轨道数据 AOE轨道数据
星历时间 2026-06-17T12:00:02+0800
9小时前
查看轨道信息
2026-06-11T03:00:00+0800
6天前
查看轨道信息
半长轴 6891.809km 6917.902km
偏心率 0.0000391 0.0001297
轨道倾角 53.159° 53.159°
近地点辐角 62.059° 123.804°
升交点赤经 87.241° 116.045°
平近点角 307.682° 81.267°
近地点 513.402km 538.867km
远地点 513.942km 540.663km
周期 94.899分钟 95.438分钟
每日圈数 15.174102 15.088331
Detailed Information
固有亮度:
5
最大亮度:
2.5
卫星平台:
Starlink v1.5
覆盖范围:
全球
运营商:
太空探索技术公司
运营商所在国:
美国
制造商(研发单位):
太空探索技术公司
制造商所在国:
美国
使用方式:
暂无
Satellite Introduction
星链(Starlink)计划是由太空探索技术公司(SpaceX)提出的一个巨型低轨卫星互联网星座项目,计划在2019年至2024年间在太空搭建由约1.2万颗卫星组成的“星链”网络,其中1584颗将部署在地球上空550千米处的近地轨道,并从2020年开始工作。该卫星仍在工作。
2D Orbit Map
3D Orbit Map
Orbit Altitude Analysis Chart
Orbit Inclination Analysis Chart
Orbit Comprehensive Analysis Chart
View Comprehensive Chart